measurement_time,temperature,humidity
1503239719,31.07,60.75
1503239779,31.39,58.97
1503239839,31.43,59.39
1503239899,31.28,59.65
1503239959,31.58,58.49
1503240019,31.50,57.72
1503240079,31.39,58.79
1503240139,31.41,59.07
1503240199,31.28,59.38
1503240259,31.30,59.50
1503240319,31.48,58.78
1503240379,31.49,58.83
1503240439,31.74,57.67
1503240499,31.73,57.34
1503240559,31.39,57.82
1503240619,31.21,59.15
1503240679,31.24,59.11
1503240739,31.04,60.27
1503240799,31.40,60.07
1503240859,31.71,57.53
1503240919,31.84,57.69
1503240979,31.88,58.07
1503241039,32.09,57.34
1503241099,32.26,57.52
1503241159,32.35,56.22
1503241219,32.40,56.82
1503241279,32.62,55.97
1503241339,32.14,57.94
1503241399,32.07,57.50
1503241459,32.39,56.12
1503241519,32.60,55.50
1503241579,32.78,55.33
1503241639,33.00,54.55
1503241699,32.86,55.37
1503241759,33.04,54.79
1503241819,33.08,54.69
1503241879,33.07,54.73
1503241939,32.85,56.20
1503241999,32.98,55.21
1503242059,32.86,55.13
1503242119,32.85,54.85
1503242179,32.77,55.16
1503242239,32.39,54.97
1503242299,32.39,56.21
1503242359,32.42,56.99
1503242419,32.76,56.44
1503242479,33.03,54.29
1503242539,33.12,54.67
1503242599,33.27,53.41
1503242659,33.28,52.12
1503242719,33.44,53.06
1503242779,33.41,51.38
1503242839,33.60,50.97
1503242899,33.72,53.34
1503242959,33.80,53.50
1503243019,33.95,52.49
1503243079,34.18,52.09
1503243139,34.33,52.11
1503243199,34.30,50.75
1503243259,34.25,50.70
1503243319,34.02,50.55
1503243379,34.09,50.80
1503243439,33.90,51.03
1503243499,33.92,51.21
1503243559,33.87,51.42
1503243619,33.88,51.06
1503243679,33.89,51.25
1503243739,34.02,51.28
1503243799,34.05,50.51
1503243859,34.16,51.23
1503243919,34.05,50.78
1503243979,33.81,51.81
1503244039,33.60,53.06
1503244099,33.58,52.61
1503244159,33.63,52.12
1503244219,33.89,51.22
1503244279,33.90,52.09
1503244339,34.01,51.45
1503244399,33.96,51.21
1503244459,34.09,51.02
1503244519,34.17,50.85
1503244579,34.31,52.06
1503244639,34.49,51.74
1503244699,34.36,51.99
1503244759,34.39,50.47
1503244819,34.11,50.61
1503244879,34.11,50.95
1503244939,33.97,50.62
1503244999,34.11,52.92
1503245059,34.37,51.20
1503245119,34.45,50.67
1503245179,34.49,50.78
1503245239,34.54,51.47
1503245299,34.55,50.12
1503245359,34.56,49.81
1503245419,34.67,50.35
1503245479,34.56,51.12
1503245539,34.67,50.09
1503245599,34.65,50.05
1503245659,34.76,50.02
1503245719,34.98,48.62
1503245779,34.73,50.26
1503245839,34.64,49.77
1503245899,34.59,52.31
1503245959,34.73,51.42
1503246019,34.70,50.89
1503246079,34.91,49.01
1503246139,34.80,50.11
1503246199,34.80,49.12
1503246259,34.67,49.38
1503246319,34.68,50.28
1503246379,34.95,50.31
1503246439,35.15,50.45
1503246499,35.13,47.75
1503246559,34.99,48.15
1503246619,35.06,47.56
1503246679,34.95,48.61
1503246739,34.95,48.65
1503246799,35.09,48.48
1503246859,35.06,47.91
1503246919,35.06,48.19
1503246979,35.19,48.27
1503247039,34.98,48.01
1503247099,34.83,49.03
1503247159,34.81,48.71
1503247219,34.86,49.03
1503247279,34.99,48.45
1503247339,34.89,47.94
1503247399,34.98,48.50
1503247459,34.99,48.71
1503247519,34.95,47.84
1503247579,35.04,47.25
1503247639,35.14,46.80
1503247699,35.16,46.72
1503247759,35.00,46.77
1503247819,35.04,47.39
1503247879,34.90,47.65
1503247939,34.78,48.10
1503247999,34.61,48.40
1503248059,34.39,48.00
1503248119,34.30,48.16
1503248179,34.26,48.58
1503248239,34.36,48.29
1503248299,34.41,48.04
1503248359,34.32,48.56
1503248419,34.40,49.42
1503248479,34.16,50.25
1503248539,34.12,49.84
1503248599,34.12,49.13
1503248659,34.15,49.52
1503248719,34.14,49.14
1503248779,34.33,49.64
1503248839,34.46,48.07
1503248899,34.49,47.51
1503248959,34.50,47.95
1503249019,34.45,48.59
1503249079,34.53,48.02
1503249139,34.56,47.72
1503249199,34.73,47.22
1503249259,34.83,48.36
1503249319,34.91,50.62
1503249379,34.90,50.81
1503249439,34.93,48.93
1503249499,34.97,48.91
1503249559,34.96,45.62
1503249619,34.82,46.60
1503249679,34.92,45.11
1503249739,35.04,44.84
1503249799,35.05,44.24
1503249859,34.97,45.71
1503249919,34.97,45.82
1503249979,34.99,45.20
1503250039,34.85,44.91
1503250099,34.77,45.17
1503250159,34.82,46.46
1503250219,34.99,46.12
1503250279,34.95,45.72
1503250339,34.80,46.05
1503250399,34.91,46.42
1503250459,34.99,46.93
1503250519,35.01,46.79
1503250579,35.05,46.07
1503250639,35.11,45.43
1503250699,34.99,46.42
1503250759,34.96,45.47
1503250819,34.91,46.01
1503250879,34.97,45.45
1503250939,35.00,45.26
1503250999,35.03,45.28
1503251059,35.11,45.10
1503251119,35.04,46.14
1503251179,34.97,46.02
1503251239,34.96,47.59
1503251299,35.03,47.91
1503251359,35.11,47.52
1503251419,35.07,46.50
1503251479,35.08,48.17
1503251539,35.04,48.52
1503251599,35.00,47.97
1503251659,34.89,47.50
1503251719,34.98,47.73
1503251779,35.07,48.51
1503251839,35.14,48.07
1503251899,35.24,47.70
1503251959,35.28,46.50
1503252019,35.35,46.10
1503252079,35.35,46.65
1503252139,35.33,46.01
1503252199,35.35,43.82
1503252259,35.45,44.42
1503252319,35.41,42.99
1503252379,35.48,43.28
1503252439,35.50,43.24
1503252499,35.35,44.09
1503252559,35.24,43.51
1503252619,35.23,43.37
1503252679,35.38,42.71
1503252739,35.21,42.78
1503252799,35.19,43.02
1503252859,35.20,43.25
1503252919,35.31,43.80
1503252979,35.20,45.38
1503253039,35.06,45.73
1503253099,35.07,46.90
1503253159,35.19,44.93
1503253219,35.20,44.57
1503253279,35.33,44.05
1503253339,35.15,45.52
1503253399,35.16,47.00
1503253459,35.15,45.42
1503253519,35.09,45.52
1503253579,35.24,44.82
1503253639,35.28,43.52
1503253699,35.41,43.44
1503253759,35.51,43.69
1503253819,35.55,45.56
1503253879,35.53,43.82
1503253939,35.56,42.71
1503253999,35.51,42.78
1503254059,35.45,43.50
1503254119,35.37,43.06
1503254179,35.29,43.40
1503254239,35.36,42.45
1503254299,35.33,43.70
1503254359,35.20,43.08
1503254419,35.20,43.18
1503254479,35.16,43.72
1503254539,35.12,45.06
1503254599,35.16,43.08
1503254659,35.09,43.73
1503254719,35.11,44.58
1503254779,34.99,44.26
1503254839,34.98,44.35
1503254899,34.82,44.29
1503254959,34.62,44.32
1503255019,34.70,44.19
1503255079,34.81,45.20
1503255139,34.71,45.97
1503255199,34.65,44.55
1503255259,34.68,44.82
1503255319,34.77,46.43
1503255379,34.53,44.40
1503255439,34.30,44.64
1503255499,34.25,44.53
1503255559,34.18,44.37
1503255619,34.09,43.62
1503255679,34.24,43.11
1503255739,34.33,41.95
1503255799,34.44,43.60
1503255859,34.46,43.86
1503255919,34.47,43.50
1503255979,34.42,43.82
1503256039,34.44,43.60
1503256099,34.29,43.03
1503256159,34.45,43.43
1503256219,34.47,44.99
1503256279,34.40,45.85
1503256339,34.25,46.43
1503256399,34.14,46.65
1503256459,34.14,49.61
1503256519,34.23,50.06
1503256579,34.26,48.74
1503256639,34.22,46.93
1503256699,34.30,46.81
1503256759,34.32,45.69
1503256819,34.36,44.40
1503256879,34.32,43.52
1503256939,34.29,42.28
1503256999,34.22,43.02
1503257059,34.18,45.36
1503257119,34.25,44.75
1503257179,34.31,44.00
1503257239,34.12,43.79
1503257299,34.09,42.51
1503257359,34.05,42.76
1503257419,34.00,42.18
1503257479,33.91,41.80
1503257539,33.88,41.95
1503257599,33.88,41.84
1503257659,33.88,43.59
1503257719,33.85,43.08
1503257779,33.90,42.34
1503257839,33.94,41.81
1503257899,34.05,42.23
1503257959,34.08,42.46
1503258019,34.12,43.79
1503258079,34.12,42.62
1503258139,34.08,43.88
1503258199,33.96,45.32
1503258259,34.07,44.05
1503258319,34.04,42.85
1503258379,33.99,43.20
1503258439,33.90,43.79
1503258499,33.82,43.36
1503258559,33.67,44.16
1503258619,33.63,44.47
1503258679,33.63,44.24
1503258739,33.59,44.66
1503258799,33.57,44.50
1503258859,33.51,44.01
1503258919,33.46,44.88
1503258979,33.44,45.47
1503259039,33.50,46.46
1503259099,33.48,45.21
1503259159,33.41,44.66
1503259219,33.41,44.56
1503259279,33.49,46.23
1503259339,33.57,45.65
1503259399,33.57,43.97
1503259459,33.53,44.45
1503259519,33.48,44.54
1503259579,33.44,43.76
1503259639,33.47,43.82
1503259699,33.48,43.44
1503259759,33.40,44.59
1503259819,33.40,44.02
1503259879,33.41,44.08
1503259939,33.31,44.31
1503259999,33.26,44.69
1503260059,33.15,44.66
1503260119,33.07,44.50
1503260179,33.06,44.63
1503260239,33.13,44.76
1503260299,33.13,44.68
1503260359,33.11,44.22
1503260419,33.15,43.97
1503260479,33.20,44.86
1503260539,33.16,44.36
1503260599,33.15,44.05
1503260659,33.21,43.90
1503260719,33.22,44.48
1503260779,33.29,45.64
1503260839,33.28,47.21
1503260899,33.27,48.17
1503260959,33.29,49.54
1503261019,33.31,47.46
1503261079,33.27,46.62
1503261139,33.29,46.79
1503261199,33.28,47.20
1503261259,33.23,49.19
1503261319,33.22,47.13
1503261379,33.23,45.93
1503261439,33.23,45.47
1503261499,33.21,45.93
1503261559,33.21,45.64
1503261619,33.20,45.93
1503261679,33.22,47.29
1503261739,33.21,46.66
1503261799,33.16,46.48
1503261859,33.22,47.02
1503261919,33.18,47.32
1503261979,33.17,46.88
1503262039,33.16,46.02
1503262099,33.20,45.54
1503262159,33.17,46.06
1503262219,33.13,45.84
1503262279,33.09,45.43
1503262339,33.00,45.29
1503262399,33.04,45.94
1503262459,33.07,45.45
1503262519,33.08,45.35
1503262579,33.11,46.32
1503262639,33.09,45.93
1503262699,33.15,45.88
1503262759,33.16,46.14
1503262819,33.15,46.14
1503262879,33.18,46.13
1503262939,33.22,47.60
1503262999,33.19,48.10
1503263059,33.25,48.35
1503263119,33.27,48.26
1503263179,33.31,48.84
1503263239,33.27,49.10
1503263299,33.31,48.46
1503263359,33.29,49.53
1503263419,33.31,49.97
1503263479,33.32,49.25
1503263539,33.33,49.26
1503263599,33.34,49.42
1503263659,33.31,48.67
1503263719,33.32,48.09
1503263779,33.32,47.81
1503263839,33.29,48.71
1503263899,33.34,47.81
1503263959,33.38,46.63
1503264019,33.35,47.00
1503264079,33.35,47.48
1503264139,33.40,48.82
1503264199,33.40,47.63
1503264259,33.38,48.71
1503264319,33.36,49.29
1503264379,33.38,48.26
1503264439,33.38,48.40
1503264499,33.40,48.86
1503264559,33.37,48.90
1503264619,33.36,47.51
1503264679,33.38,47.52
1503264739,33.35,46.74
1503264799,33.34,46.88
1503264859,33.31,46.34
1503264919,33.33,46.89
1503264979,33.30,47.12
1503265039,33.29,46.47
1503265099,33.32,45.82
1503265159,33.33,46.84
1503265219,33.31,47.42
1503265279,33.30,48.62
1503265339,33.32,49.36
1503265399,33.31,48.38
1503265459,33.29,48.75
1503265519,33.29,47.79
1503265579,33.30,47.11
1503265639,33.31,47.02
1503265699,33.32,47.56
1503265759,33.29,47.60
1503265819,33.30,46.96
1503265879,33.25,48.68
1503265939,33.22,48.51
1503265999,33.28,48.24
1503266059,33.27,48.77
1503266119,33.29,48.55
1503266179,33.29,48.66
1503266239,33.29,49.31
1503266299,33.28,49.26
1503266359,33.23,48.98
1503266419,33.23,49.27
1503266479,33.21,48.18
1503266539,33.20,48.89
1503266599,33.20,48.96
1503266659,33.20,48.64
1503266719,33.16,48.39
1503266779,33.16,48.49
1503266839,33.16,48.99
1503266899,33.18,49.23
1503266959,33.16,48.29
1503267019,33.17,49.11
1503267079,33.19,49.52
1503267139,33.16,48.83
1503267199,33.16,48.12
1503267259,33.07,48.14
1503267319,33.12,48.22
1503267379,33.08,48.13
1503267439,33.11,48.42
1503267499,33.05,49.31
1503267559,33.07,48.59
1503267619,33.08,48.96
1503267679,33.03,48.98
1503267739,33.03,48.94
1503267799,32.97,49.61
1503267859,32.99,48.99
1503267919,33.02,49.00
1503267979,33.03,48.10
1503268039,33.03,48.74
1503268099,33.00,48.88
1503268159,32.99,48.58
1503268219,33.00,48.38
1503268279,32.99,48.42
1503268339,33.01,48.34
1503268399,32.93,48.97
1503268459,32.96,49.11
1503268519,32.96,48.92
1503268579,32.96,48.80
1503268639,32.94,48.52
1503268699,32.93,48.09
1503268759,32.91,48.74
1503268819,32.93,48.23
1503268879,32.91,47.97
1503268939,32.91,49.06
1503268999,32.90,48.48
1503269059,32.90,48.93
1503269119,32.84,48.54
1503269179,32.83,48.79
1503269239,32.83,48.54
1503269299,32.82,48.77
1503269359,32.78,48.97
1503269419,32.78,49.38
1503269479,32.73,49.11
1503269539,32.75,49.23
1503269599,32.72,49.23
1503269659,32.71,49.13
1503269719,32.69,49.26
1503269779,32.67,49.15
1503269839,32.66,49.19
1503269899,32.64,49.21
1503269959,32.62,49.53
1503270019,32.60,49.50
1503270079,32.59,49.39
1503270139,32.55,49.10
1503270199,32.53,48.78
1503270259,32.54,48.79
1503270319,32.52,48.91
1503270379,32.49,48.64
1503270439,32.48,49.23
1503270499,32.50,48.58
1503270559,32.46,48.77
1503270619,32.47,48.37
1503270679,32.35,48.85
1503270739,32.38,49.07
1503270799,32.39,48.79
1503270859,32.34,49.21
1503270919,32.34,49.15
1503270979,32.34,49.32
1503271039,32.34,48.67
1503271099,32.33,48.72
1503271159,32.31,48.93
1503271219,32.31,48.40
1503271279,32.32,48.42
1503271339,32.30,49.18
1503271399,32.30,48.93
1503271459,32.26,48.97
1503271519,32.25,49.29
1503271579,32.26,48.77
1503271639,32.23,48.78
1503271699,32.24,48.87
1503271759,32.20,49.18
1503271819,32.18,49.00
1503271879,32.16,49.02
1503271939,32.16,48.81
1503271999,32.16,48.73
1503272059,32.14,48.62
1503272119,32.13,48.85
1503272179,32.11,48.94
1503272239,32.10,49.05
1503272299,32.07,48.99
1503272359,32.02,48.28
1503272419,32.04,48.68
1503272479,32.00,48.87
1503272539,31.95,48.67
1503272599,31.93,48.84
1503272659,31.86,48.87
1503272719,31.87,48.74
1503272779,31.86,48.65
1503272839,31.85,48.93
1503272899,31.83,48.88
1503272959,31.80,49.22
1503273019,31.81,49.52
1503273079,31.78,49.60
1503273139,31.76,49.83
1503273199,31.73,49.86
1503273259,31.72,50.06
1503273319,31.67,50.29
1503273379,31.67,50.36
1503273439,31.65,50.36
1503273499,31.60,50.91
1503273559,31.55,52.73
1503273619,31.53,53.56
1503273679,31.51,55.25
1503273739,31.46,55.05
1503273799,31.41,54.98
1503273859,31.39,56.33
1503273919,31.36,56.01
1503273979,31.31,56.44
1503274039,31.27,57.29
1503274099,31.24,58.04
1503274159,31.19,58.50
1503274219,31.15,58.72
1503274279,31.09,56.15
1503274339,31.06,56.22
1503274399,31.01,57.27
1503274459,30.93,57.37
1503274519,30.89,57.37
1503274579,30.81,58.51
1503274639,30.74,58.46
1503274699,30.68,58.06
1503274759,30.57,57.69
1503274819,30.54,57.30
1503274879,30.50,57.21
1503274939,30.44,57.36
1503274999,30.40,57.46
1503275059,30.38,57.13
1503275119,30.33,57.07
1503275179,30.32,57.41
1503275239,30.30,57.77
1503275299,30.30,57.34
1503275359,30.24,58.50
1503275419,30.22,59.35
1503275479,30.17,60.83
1503275539,30.09,61.48
1503275599,30.01,62.04
1503275659,29.91,62.81
1503275719,29.86,63.05
1503275779,29.85,63.00
1503275839,29.77,63.52
1503275899,29.74,64.34
1503275959,29.70,64.54
1503276019,29.64,64.74
1503276079,29.58,64.96
1503276139,29.54,65.54
1503276199,29.49,65.64
1503276259,29.46,65.59
1503276319,29.39,65.86
1503276379,29.33,65.93
1503276439,29.30,66.12
1503276499,29.24,67.38
1503276559,29.22,67.73
1503276619,29.18,67.35
1503276679,29.15,67.58
1503276739,29.09,67.73
1503276799,29.09,68.41
1503276859,29.03,68.47
1503276919,29.02,68.62
1503276979,29.00,68.82
1503277039,28.95,68.57
1503277099,28.89,68.69
1503277159,28.84,68.84
1503277219,28.82,69.17
1503277279,28.76,69.22
1503277339,28.73,69.44
1503277399,28.71,69.39
1503277459,28.67,69.28
1503277519,28.67,69.30
1503277579,28.58,69.01
1503277639,28.53,68.91
1503277699,28.49,67.87
1503277759,28.43,67.91
1503277819,28.40,68.18
1503277879,28.35,68.60
1503277939,28.31,69.33
1503277999,28.27,69.59
1503278059,28.20,69.86
1503278119,28.17,70.12
1503278179,28.11,71.10
1503278239,28.06,71.53
1503278299,28.04,71.72
1503278359,28.01,71.85
1503278419,27.99,71.98
1503278479,27.93,72.27
1503278539,27.89,72.35
1503278599,27.87,72.45
1503278659,27.82,72.49
1503278719,27.80,72.62
1503278779,27.81,72.85
1503278839,27.74,73.20
1503278899,27.74,73.11
1503278959,27.70,73.09
1503279019,27.66,72.75
1503279079,27.63,72.04
1503279139,27.58,71.68
1503279199,27.54,71.95
1503279259,27.49,72.27
1503279319,27.43,72.35
1503279379,27.40,72.48
1503279439,27.39,72.93
1503279499,27.31,73.14
1503279559,27.30,73.11
1503279619,27.29,73.69
1503279679,27.27,74.11
1503279739,27.24,74.30
1503279799,27.23,74.36
1503279859,27.21,74.64
1503279919,27.20,74.69
1503279979,27.19,74.91
1503280039,27.16,75.21
1503280099,27.17,75.27
1503280159,27.13,75.41
1503280219,27.10,75.61
1503280279,27.07,75.85
1503280339,27.06,76.10
1503280399,27.05,76.25
1503280459,27.06,76.53
1503280519,27.00,76.78
1503280579,26.98,76.96
1503280639,26.96,77.09
1503280699,26.96,77.31
1503280759,26.94,77.27
1503280819,26.93,77.35
1503280879,26.90,77.44
1503280939,26.90,77.49
1503280999,26.91,77.56
1503281059,26.85,77.74
1503281119,26.87,77.97
1503281179,26.80,77.84
1503281239,26.82,77.92
1503281299,26.81,77.90
1503281359,26.80,77.83
1503281419,26.76,78.08
1503281479,26.76,78.25
1503281539,26.75,78.22
1503281599,26.73,78.27
1503281659,26.70,78.49
1503281719,26.66,78.63
1503281779,26.67,78.61
1503281839,26.65,78.38
1503281899,26.62,78.67
1503281959,26.62,78.64
1503282019,26.57,78.72
1503282079,26.56,78.67
1503282139,26.54,78.52
1503282199,26.54,78.69
1503282259,26.52,78.70
1503282319,26.50,78.55
1503282379,26.50,78.55
1503282439,26.48,78.76
1503282499,26.46,78.85
1503282559,26.46,78.93
1503282619,26.42,79.00
1503282679,26.39,79.20
1503282739,26.37,79.60
1503282799,26.35,79.59
1503282859,26.32,79.83
1503282919,26.31,79.95
1503282979,26.28,79.91
1503283039,26.28,80.12
1503283099,26.25,79.99
1503283159,26.25,80.10
1503283219,26.19,80.31
1503283279,26.17,80.36
1503283339,26.15,80.36
1503283399,26.12,80.34
1503283459,26.12,80.15
1503283519,26.07,80.22
1503283579,26.06,80.19
1503283639,26.02,80.54
1503283699,25.98,80.84
1503283759,25.94,80.90
1503283819,25.88,81.02
1503283879,25.84,81.27
1503283939,25.82,81.54
1503283999,25.77,81.76
1503284059,25.75,81.84
1503284119,25.74,81.86
1503284179,25.72,81.90
1503284239,25.68,82.11
1503284299,25.64,82.14
1503284359,25.61,82.31
1503284419,25.60,82.54
1503284479,25.58,82.67
1503284539,25.56,82.60
1503284599,25.56,82.67
1503284659,25.51,82.79
1503284719,25.50,82.98
1503284779,25.48,83.08
1503284839,25.48,83.09
1503284899,25.46,83.02
1503284959,25.47,83.12
1503285019,25.46,83.16
1503285079,25.45,83.32
1503285139,25.42,83.21
1503285199,25.40,83.28
1503285259,25.42,83.47
1503285319,25.42,83.39
1503285379,25.42,83.21
1503285439,25.39,83.37
1503285499,25.37,83.35
1503285559,25.36,83.53
1503285619,25.36,83.65
1503285679,25.33,83.67
1503285739,25.30,83.69
1503285799,25.30,83.73
1503285859,25.29,83.89
1503285919,25.30,83.94
1503285979,25.27,84.17
1503286039,25.28,84.05
1503286099,25.23,84.08
1503286159,25.22,83.92
1503286219,25.21,83.95
1503286279,25.22,84.13
1503286339,25.20,84.28
1503286399,25.21,84.15
1503286459,25.17,84.27
1503286519,25.18,84.29
1503286579,25.17,84.46
1503286639,25.16,84.45
1503286699,25.17,84.37
1503286759,25.14,84.55
1503286819,25.12,84.78
1503286879,25.09,84.92
1503286939,25.04,84.74
1503286999,25.06,84.69
1503287059,25.03,84.58
1503287119,24.97,84.48
1503287179,24.93,84.57
1503287239,24.85,84.93
1503287299,24.75,85.38
1503287359,24.68,85.56
1503287419,24.61,85.93
1503287479,24.56,86.27
1503287539,24.55,86.31
1503287599,24.53,86.30
1503287659,24.50,86.41
1503287719,24.47,86.49
1503287779,24.45,86.63
1503287839,24.44,86.96
1503287899,24.43,86.70
1503287959,24.44,86.90
1503288019,24.41,86.97
1503288079,24.41,87.01
1503288139,24.42,87.37
1503288199,24.41,87.53
1503288259,24.42,87.69
1503288319,24.39,87.44
1503288379,24.40,87.29
1503288439,24.39,87.45
1503288499,24.39,87.47
1503288559,24.40,87.61
1503288619,24.38,87.52
1503288679,24.38,87.63
1503288739,24.35,87.51
1503288799,24.36,87.54
1503288859,24.35,87.69
1503288919,24.35,87.60
1503288979,24.33,87.50
1503289039,24.34,87.85
1503289099,24.32,87.99
1503289159,24.32,87.91
1503289219,24.31,87.94
1503289279,24.31,87.94
1503289339,24.30,87.88
1503289399,24.30,87.90
1503289459,24.32,87.89
1503289519,24.27,87.88
1503289579,24.28,87.90
1503289639,24.27,88.01
1503289699,24.27,87.98
1503289759,24.28,87.72
1503289819,24.25,87.65
1503289879,24.26,87.75
1503289939,24.23,87.98
1503289999,24.21,87.96
1503290059,24.19,88.30
1503290119,24.18,88.28
1503290179,24.18,88.07
1503290239,24.16,88.07
1503290299,24.14,88.02
1503290359,24.14,88.09
1503290419,24.12,88.10
1503290479,24.13,88.16
1503290539,24.11,87.94
1503290599,24.09,87.90
1503290659,24.06,87.97
1503290719,24.06,87.94
1503290779,24.05,87.83
1503290839,24.05,87.88
1503290899,24.01,87.91
1503290959,24.02,87.74
1503291019,23.96,87.75
1503291079,23.96,87.71
1503291139,23.92,87.81
1503291199,23.91,88.21
1503291259,23.87,88.23
1503291319,23.83,88.44
1503291379,23.79,88.43
1503291439,23.79,88.26
1503291499,23.76,88.17
1503291559,23.74,88.11
1503291619,23.72,88.12
1503291679,23.69,88.30
1503291739,23.67,88.43
1503291799,23.66,88.39
1503291859,23.64,88.36
1503291919,23.64,88.63
1503291979,23.62,88.78
1503292039,23.64,88.73
1503292099,23.61,88.73
1503292159,23.59,88.94
1503292219,23.59,88.98
1503292279,23.61,89.01
1503292339,23.58,89.12
1503292399,23.57,88.94
1503292459,23.57,88.87
1503292519,23.56,88.86
1503292579,23.54,88.91
1503292639,23.54,88.83
1503292699,23.54,88.94
1503292759,23.52,89.31
1503292819,23.51,89.20
1503292879,23.53,89.07
1503292939,23.51,89.00
1503292999,23.52,89.10
1503293059,23.52,89.21
1503293119,23.51,89.23
1503293179,23.50,89.18
1503293239,23.51,89.23
1503293299,23.51,89.36
1503293359,23.52,89.46
1503293419,23.50,89.39
1503293479,23.51,89.46
1503293539,23.51,89.55
1503293599,23.49,89.46
1503293659,23.51,89.21
1503293719,23.51,89.07
1503293779,23.53,89.12
1503293839,23.50,88.96
1503293899,23.49,88.94
1503293959,23.51,88.80
1503294019,23.46,88.91
1503294079,23.46,88.73
1503294139,23.46,88.84
1503294199,23.45,88.90
1503294259,23.43,88.97
1503294319,23.46,89.21
1503294379,23.44,89.30
1503294439,23.43,89.19
1503294499,23.41,89.11
1503294559,23.41,89.21
1503294619,23.40,89.24
1503294679,23.38,89.13
1503294739,23.36,89.11
1503294799,23.32,89.33
1503294859,23.31,89.33
1503294919,23.26,89.32
1503294979,23.21,89.49
1503295039,23.12,89.81
1503295099,23.10,90.00
1503295159,23.07,90.06
1503295219,23.06,90.00
1503295279,23.03,90.12
1503295339,23.03,90.26
1503295399,22.99,90.32
1503295459,22.98,90.35
1503295519,22.98,90.38
1503295579,22.98,90.53
1503295639,22.95,90.55
1503295699,22.97,90.68
1503295759,22.96,90.74
1503295819,22.94,90.74
1503295879,22.94,90.65
1503295939,22.94,90.89
1503295999,22.91,90.89
1503296059,22.94,90.93
1503296119,22.94,90.68
1503296179,22.94,90.68
1503296239,22.94,90.57
1503296299,22.92,90.53
1503296359,22.94,90.43
1503296419,22.94,90.49
1503296479,22.92,90.71
1503296539,22.91,90.74
1503296599,22.90,90.75
1503296659,22.91,90.61
1503296719,22.90,90.54
1503296779,22.87,90.61
1503296839,22.87,90.59
1503296899,22.87,90.60
1503296959,22.84,90.65
1503297019,22.85,90.66
1503297079,22.83,90.67
1503297139,22.82,90.60
1503297199,22.82,90.55
1503297259,22.78,90.52
1503297319,22.79,90.47
1503297379,22.77,90.42
1503297439,22.76,90.53
1503297499,22.76,90.57
1503297559,22.71,90.52
1503297619,22.71,90.45
1503297679,22.69,90.47
1503297739,22.68,90.41
1503297799,22.66,90.58
1503297859,22.69,90.79
1503297919,22.68,90.84
1503297979,22.67,90.97
1503298039,22.68,91.07
1503298099,22.66,91.08
1503298159,22.67,91.15
1503298219,22.65,91.12
1503298279,22.64,90.97
1503298339,22.64,91.00
1503298399,22.61,91.09
1503298459,22.63,91.06
1503298519,22.65,91.37
1503298579,22.63,91.48
1503298639,22.68,91.43
1503298699,22.65,91.40
1503298759,22.64,91.45
1503298819,22.64,91.37
1503298879,22.63,91.34
1503298939,22.61,91.45
1503298999,22.62,91.56
1503299059,22.62,91.81
1503299119,22.61,91.77
1503299179,22.61,91.64
1503299239,22.60,91.59
1503299299,22.58,91.60
1503299359,22.57,91.61
1503299419,22.56,91.69
1503299479,22.55,91.77
1503299539,22.54,91.72
1503299599,22.54,92.02
1503299659,22.53,92.26
1503299719,22.52,92.20
1503299779,22.52,92.12
1503299839,22.54,92.16
1503299899,22.54,92.34
1503299959,22.51,92.14
1503300019,22.54,92.16
1503300079,22.54,92.09
1503300139,22.53,91.91
1503300199,22.50,91.82
1503300259,22.52,91.94
1503300319,22.53,91.92
1503300379,22.50,91.86
1503300439,22.51,91.79
1503300499,22.51,91.84
1503300559,22.50,91.81
1503300619,22.48,91.84
1503300679,22.49,91.93
1503300739,22.46,92.12
1503300799,22.47,92.30
1503300859,22.48,92.38
1503300919,22.48,92.64
1503300979,22.49,92.70
1503301039,22.48,92.60
1503301099,22.48,92.64
1503301159,22.47,92.58
1503301219,22.51,92.70
1503301279,22.49,92.80
1503301339,22.48,92.69
1503301399,22.46,92.52
1503301459,22.48,92.37
1503301519,22.48,92.08
1503301579,22.41,91.58
1503301639,22.40,91.29
1503301699,22.38,91.16
1503301759,22.35,91.22
1503301819,22.33,91.27
1503301879,22.27,91.46
1503301939,22.26,91.65
1503301999,22.24,91.69
1503302059,22.24,91.77
1503302119,22.21,91.76